Regional Weather Roundup
Issued by NWS

Home | Current Version | Previous Version | Text Only | Print | Product List | Glossary Off
Versions: 1 2 3 4 5 6 7 8 9 10 11 12 13 14 15 16 17 18 19 20 21 22 23 24 25 26 27 28

000
ASUS45 KTFX 171010
RWRMT
MONTANA REGIONAL WEATHER ROUNDUP
NATIONAL WEATHER SERVICE GREAT FALLS MT
400 AM MDT THU AUG 17 2017

NOTE: "FAIR" INDICATES FEW OR NO CLOUDS BELOW 12000 FEET WITH NO
SIGNIFICANT WEATHER AND/OR OBSTRUCTIONS TO VISIBILITY.

MTZ001>007-043-171100-
WEST OF THE DIVIDE

CITY           SKY/WX    TMP DP  RH WIND       PRES   REMARKS
KALISPELL        N/A     50  41  71 CALM      29.98R
MISSOULA         N/A     55  40  56 CALM      30.04R
BUTTE          CLEAR     48  32  53 CALM      30.14R
MULLAN PASS      N/A     55  36  48 VRB5      30.15S
DEER LODGE       N/A     50  36  57 W3        30.10S
EUREKA           N/A     59  39  47 MISG        N/A
HAMILTON         N/A     54  39  58 CALM      30.05S
LIBBY            N/A     52  39  62 CALM      29.97R
PLAINS           N/A     51  38  61 MISG      30.01R
RONAN            N/A     49  41  74 CALM      30.05R
$$

MTZ008-052>055-171100-
SOUTHWEST MONTANA

CITY           SKY/WX    TMP DP  RH WIND       PRES   REMARKS
BOZEMAN        PTCLDY    54  44  69 S7        30.05R
DILLON         CLOUDY    53  35  50 SE10      30.09R
W YELLOWSTONE  CLOUDY    48  41  76 CALM      30.18R
ENNIS          CLOUDY    52  41  66 CALM      30.14S
THREE FORKS      N/A     54  43  66 CALM      30.03S
$$

MTZ009-010-012-014-046-048-049-054-171100-
EAST SLOPES AND CENTRAL MONTANA

CITY           SKY/WX    TMP DP  RH WIND       PRES   REMARKS
CUT BANK         N/A     59  37  44 W13       29.95R
GREAT FALLS    CLEAR     57  30  35 S10       29.97R
MALMSTROM AFB  PTCLDY    57  32  39 SW8       29.96R
HELENA         MOCLDY    70  36  28 VRB3      30.01F
AUGUSTA          N/A     57  32  38 W9        30.00S
BOWMANS CRNR     N/A     59  30  33 S7        29.99S
CHOTEAU          N/A     59  34  38 SW6       29.99R
FAIRFIELD        N/A     55  36  48 CALM      29.97R
POWER            N/A     54  32  43 W9        29.96R
RAYNESFORD       N/A     52  31  44 E6        30.00R
ULM              N/A     53  31  42 CALM      29.97S
$$

MTZ011-013-016-021-045-047-050-051-171100-
NORTH CENTRAL MONTANA

CITY           SKY/WX    TMP DP  RH WIND       PRES   REMARKS
HAVRE          CLOUDY    52  35  52 SW7       29.87S
LEWISTOWN      CLOUDY    50  31  48 SE7       29.98S
N BAR RANCH    CLOUDY    52  28  40 W5        30.01S
CHINOOK          N/A     54  45  71 CALM      29.87R
DENTON           N/A     53  30  40 S12       29.92R
GEYSER         MOCLDY    60  29  30 SW15      29.98R
GRASS RANGE      N/A     58  28  31 W5        29.92S
JUDITH GAP       N/A     53  28  39 W6        30.00S
WINIFRED       MOCLDY    62  28  28 SW7       29.94R
$$

MTZ017>020-022>027-061-062-171100-
NORTHEAST MONTANA

CITY           SKY/WX    TMP DP  RH WIND       PRES   REMARKS
GLASGOW        PTCLDY    57  44  62 E3        29.82F
JORDAN           N/A     53  34  48 W6        29.87R
SIDNEY         MOCLDY    58  52  80 S3        29.81F
WOLF POINT     CLEAR     53  47  79 SW3       29.81S
MALTA          CLEAR     52  41  66 W7        29.85R
PLENTYWOOD       N/A     64  54  68 CALM      29.82F
POPLAR           N/A     57  52  82 N3        29.81S
SCOBEY           N/A     54  44  68 CALM      29.83S
$$

MTZ028>42-056>058-171100-
SOUTHCENTRAL AND SOUTHEAST MONTANA

CITY           SKY/WX    TMP DP  RH WIND       PRES   REMARKS
BAKER          CLEAR     53  46  77 E7        29.88F
BILLINGS       CLOUDY    65  42  43 W8        29.94R
LIVINGSTON     MOCLDY    56  41  57 W6        30.04R
MILES CITY     CLEAR     57  35  43 W5        29.85R
BIG TIMBER     CLOUDY    63  34  34 W9        30.04S
EKALAKA          N/A     66  41  40 CALM      29.90F
FORSYTH          N/A     64  36  34 CALM      29.86S
HARLOWTON      MOCLDY    54  29  38 MISG      30.00S
LAUREL           N/A     60  33  36 W2        29.94F
$$

REGIONAL REPORTS...DAKOTAS

CITY           SKY/WX    TMP DP  RH WIND       PRES   REMARKS
WILLISTON      CLOUDY    62  54  74 CALM      29.83F
MINOT          PTCLDY    61  52  72 SE6       29.85F
DICKINSON      CLEAR     56  51  84 S8        29.87F
BEACH            N/A     57  50  77 S9        29.88F
CROSBY           N/A     59  57  94 SE6       29.83S
TIOGA            N/A     63  61  94 SE13      29.87F
WATFORD CITY     N/A     59  54  82 CALM      29.84S
BISMARCK       CLOUDY    57  55  93 CALM      29.90S
GRAND FORKS    FOG       60  60 100 NW9       29.81S VSB 1/2
FARGO          CLOUDY    63  61  93 N13       29.77R
BUFFALO SD       N/A     56  49  77 S12       29.85S
RAPID CITY     CLEAR     55  48  77 SE6       29.95F
$$

REGIONAL REPORTS...WYOMING/IDAHO/WASHINGTON

CITY           SKY/WX    TMP DP  RH WIND       PRES   REMARKS
GILLETTE       CLEAR     64  37  36 SW12      29.97S
SHERIDAN       CLEAR     54  44  69 SW5       29.95S
BUFFALO WY     CLOUDY    61  35  37 W6        30.02S
CODY           CLEAR     61  38  42 NE3       30.05R
YELLOWSTONE LA   N/A     43  41  93 CALM      30.26S
IDAHO FALLS    CLEAR     57  41  55 SW9       30.07R
SALMON         CLEAR     51  39  63 CALM      30.09R
BOISE            N/A     62  43  49 S3        30.02R
SPOKANE          N/A     62  43  49 S7        29.96R
$$

REGIONAL REPORTS...ALBERTA

CITY           SKY/WX    TMP DP  RH WIND       PRES   REMARKS
EDMONTON       CLEAR     54  48  82 W7        29.91R
CALGARY        MOCLDY    54  46  76 N6        30.00S SMOKE
LETHBRIDGE     PTCLDY    61  41  48 W15       29.90R
MEDICINE HAT   CLOUDY    57  46  67 S3        29.85R
$$

REGIONAL REPORTS...SASKATCHEWAN

CITY           SKY/WX    TMP DP  RH WIND       PRES   REMARKS
SWIFT CURRENT  CLOUDY    54  43  66 E8        29.87R
REGINA         PTCLDY    63  45  51 NE10      29.87R
SASKATOON      MOCLDY    52  48  87 CALM      29.86F
$$




USA.gov is the U.S. government's official web portal to all federal, state and local government web resources and services.